Track STARLINK-3648 now! 10-day predictions STARLINK-3648 is classified as:
1 51993U 22025AP 22184.25001157 .00004257 00000-0 28523-3 0 9997 2 51993 53.2208 319.0223 0001536 63.5509 76.5502 15.08858690 19063